Regional Weather Roundup
Issued by NWS

Home | Current Version | Previous Version | Graphics & Text | Print | Product List | Glossary On
Versions: 1 2 3 4 5 6 7 8 9 10 11 12 13 14 15 16 17 18 19 20 21 22 23 24 25 26 27 28 29 30 31 32 33 34 35 36 37 38 39 40 41 42 43 44 45 46 47 48 49 50
939
ASUS43 KMPX 251210
RWRMN
WEATHER ROUNDUP FOR MINNESOTA
NATIONAL WEATHER SERVICE TWIN CITIES/CHANHASSEN MN
700 AM CDT MON SEP 25 2017


NOTE: "FAIR" INDICATES FEW OR NO CLOUDS BELOW 12,000 FEET WITH NO
SIGNIFICANT WEATHER AND/OR OBSTRUCTIONS TO VISIBILITY. N/A MEANS
CURRENT SKY AND/OR WEATHER CONDITIONS ARE NOT AVAILABLE.

MNZ060>063-068>070-251300-
   Twin Cities Metro

CITY           SKY/WX    TMP DP  RH WIND       PRES   REMARKS
TWIN CITIES    CLOUDY    61  60  97 N7        29.98S
6HR MIN TEMP:  61; 6HR MAX TEMP:  71; 6HR PCP:  0.36;

ST PAUL        CLOUDY    61  60  97 NW10      29.98S
CRYSTAL        LGT RAIN  58  54  86 NW5       29.98R
BLAINE         LGT RAIN  61  59  94 NW8       29.98S
LAKEVILLE      CLOUDY    61  61 100 NW6       29.98R
EDEN PRAIRIE   CLOUDY    60  58  92 NW8       29.98R
6HR MIN TEMP:  60; 6HR MAX TEMP:  69; 6HR PCP:  0.30;

SOUTH ST PAUL  CLOUDY    61  61 100 N6        29.97S
LAKE ELMO      LGT RAIN  61  61 100 CALM      29.99R
$$
MNZ001>005-007-008-013>017-022>024-027-028-251300-
   Northwest Minnesota

CITY           SKY/WX    TMP DP  RH WIND       PRES   REMARKS
BEMIDJI        CLOUDY    47  47  99 NW9       30.05R
HALLOCK        CLOUDY    48  45  87 N10       30.10R
ROSEAU           N/A     46  41  81 N8        30.08R
WARROAD        MOCLDY    46  43  87 NW7       30.07R FOG
THIEF RVR FALL CLOUDY    46  46 100 N14       30.08R FOG
CROOKSTON      CLOUDY    48  46  93 N14       30.10S
FOSSTON        LGT RAIN  45  45 100 NW8       30.08R
DETROIT LAKES  CLOUDY    46  46 100 NW9       30.07R FOG
MOORHEAD       CLOUDY    48  46  93 N8        30.09R
PARK RAPIDS    CLOUDY    50  47  89 N10       30.04R
MAHNOMEN       CLOUDY    47  46  97 N8        30.07S
$$
MNZ006-009>011-018-025>026-251300-
   North Central Minnesota

CITY           SKY/WX    TMP DP  RH WIND       PRES   REMARKS
BAUDETTE       CLOUDY    49  49 100 NW14      30.04R
FLAG ISLAND    CLOUDY    48  46  93 NW12      30.04R FOG
INTL FALLS     CLOUDY    49  48  97 NW6       30.01R FOG
6HR MIN TEMP:  49; 6HR MAX TEMP:  54;

WASKISH        CLOUDY    48  46  93 NW10      30.04R
BIG FORK       CLOUDY    48  48 100 CALM      30.02S FOG
LONGVILLE      CLOUDY    50  48  93 CALM      30.03R
GRAND RAPIDS   CLOUDY    50  49  96 NW6       30.03S
CRANE LAKE     CLOUDY    48  48 100 CALM      30.01R FOG
ORR            CLOUDY    48  46  93 CALM      29.98S FOG
COOK           CLOUDY    48  48 100 W6        30.00R FOG
WALKER         PTSUNNY   47  46  97 NW7       30.04R
$$
MNZ012-019>021-037-251300-
   Northeast Minnesota

CITY           SKY/WX    TMP DP  RH WIND       PRES   REMARKS
DULUTH         CLOUDY    54  54 100 NW12      29.97R FOG
6HR MIN TEMP:  54; 6HR MAX TEMP:  65;

ELY            CLOUDY    52  50  93 NW5       29.99R
HIBBING        PTCLDY    48  48 100 CALM      30.01R
EVELETH        CLOUDY    53  52  97 NW3       30.00S
DULUTH HARBOR  CLOUDY    61  55  82 W9        29.98R
TWO HARBORS    CLOUDY    59  54  82 N5        29.94R
SILVER BAY     CLOUDY    61  57  88 NW3       29.93S
GRAND MARAIS     N/A     64  62  93 VRB3      29.89R
G MARAIS ARPRT CLOUDY    59  55  88 W6        29.95R
$$
MNZ029>031-032-039>041-046>048-054>057-064-251300-
   West Central Minnesota

CITY           SKY/WX    TMP DP  RH WIND       PRES   REMARKS
FERGUS FALLS   CLOUDY    48  48 100 N8        30.08R
WHEATON        CLOUDY    50  46  87 NW9       30.10R
MORRIS         CLOUDY    52  48  87 NW7       30.06R
ALEXANDRIA     CLOUDY    51  49  92 NW7       30.06R
ELBOW LAKE     CLOUDY    50  48  93 N7        30.08R
WADENA         CLOUDY    48  48 100 NW6       30.04S
GLENWOOD       DRIZZLE   52  50  93 NW8       30.05R
APPLETON       CLOUDY    52  48  87 NW9       30.06R
BENSON         DRIZZLE   52  48  87 N8        30.06F
ORTONVILLE     CLOUDY    50  46  87 N7        30.08S
MADISON        RAIN      54  54 100 N12       30.07R
WILLMAR        LGT RAIN  52  52 100 NW9       30.05R
$$
MNZ033>034-036-042>043-049>051-058-059-251300-
   Central Minnesota

CITY           SKY/WX    TMP DP  RH WIND       PRES   REMARKS
ST CLOUD       LGT RAIN  52  52 100 NW6       30.01R
6HR MIN TEMP:  52; 6HR MAX TEMP:  59; 6HR PCP:  0.17;

SAUK CENTRE    RAIN      49  48  94 NW12      30.04S
PAYNESVILLE    DRIZZLE   52  50  95 N10       30.03R
AITKIN         DRIZZLE   52  48  87 CALM      30.02R
PINE RIVER     CLOUDY    46  45  93 NW5       30.07R
BRAINERD       LGT RAIN  51  49  92 NW7       30.03R
STAPLES        DRIZZLE   48  48 100 N5        30.05R
LITTLE FALLS   RAIN      50  45  81 NW7       30.02F
LITCHFIELD     LGT RAIN  54  54 100 N9        30.00F
BUFFALO        RAIN      55  52  90 NW8       30.01S
MAPLE LAKE     RAIN      55  54  97 N7        30.02R
HUTCHINSON     RAIN      54  54  98 NE3       30.02R
$$
MNZ037-044-045-052-053-251300-
   East Central Minnesota

CITY           SKY/WX    TMP DP  RH WIND       PRES   REMARKS
PRINCETON      RAIN      55  54  94 NW5       30.00R
MORA           LGT RAIN  52  50  93 N3        30.01R
CAMBRIDGE      RAIN      57  55  94 CALM      30.00R
RUSH CITY      CLOUDY    58  56  94 CALM      30.00R
MOOSE LAKE     CLOUDY    55  52  88 NW5       29.99R
HINCKLEY       RAIN      55  55 100 N6        29.99R
CLOQUET        CLOUDY    54  50  87 NW10      29.98S
MCGREGOR       MOCLDY    52  50  93 NW5       30.02R
$$
MNZ071>073-080-081-089-090-097-098-251300-
   Southwest Minnesota

CITY           SKY/WX    TMP DP  RH WIND       PRES   REMARKS
MONTEVIDEO     DRIZZLE   50  48  93 N8        30.05S
GRANITE FALLS  LGT RAIN  52  51  96 NW8       30.05R
CANBY          DRIZZLE   51  49  94 NW9G16    30.07S
REDWOOD FALLS  LGT RAIN  53  50  89 N9        30.00S
OLIVIA         CLOUDY    52  50  93 NW8       30.01R
PIPESTONE      LGT RAIN  52  50  93 N10       30.03S
WINDOM         LGT RAIN  54  52  94 N8        30.03R
WORTHINGTON    LGT RAIN  52  51  97 N9        30.03R
JACKSON        LGT RAIN  52  52 100 CALM      30.01S
TRACY          LGT RAIN  52  51  99 N13       30.02S
SLAYTON        LGT RAIN  51  46  81 N8        30.03R
$$
MNZ065>067-074>077-082>085-091>093-251300-
   South Central Minnesota

CITY           SKY/WX    TMP DP  RH WIND       PRES   REMARKS
MANKATO        CLOUDY    57  56  96 NW9       30.00S
NEW ULM        LGT RAIN  54  54 100 NW6       30.01S
ST JAMES       CLOUDY    54  54 100 NW5       30.02R
FAIRMONT       CLOUDY    55  53  93 N10       30.02R
FARIBAULT      CLOUDY    61  61 100 W5        29.99R
OWATONNA       FOG       63  61  94 W6        29.98S VSB 3/4
WASECA         CLOUDY    59  57  94 NW7       30.00S
ALBERT LEA     CLOUDY    64  64 100 NW3       29.99R
$$
MNZ078>079-086>088-094>096-251300-
   Southeast Minnesota

CITY           SKY/WX    TMP DP  RH WIND       PRES   REMARKS
ROCHESTER      CLOUDY    64  63  96 NW5       29.98R FOG
6HR MIN TEMP:  63; 6HR MAX TEMP:  67;

RED WING       CLOUDY    70  64  83 NW3       29.95R
STANTON        CLOUDY    65  62  93 CALM      29.96S
DODGE CENTER   FOG       64  63  94 N5        29.98R VSB 1/4
WINONA         PTCLDY    63  63 100 CALM      29.95R
AUSTIN         CLOUDY    66  64  94 N3        29.97R FOG
PRESTON        MOCLDY    64  60  88 CALM      29.97S
$$
ABBREVIATIONS USED IN REMARKS
   TC - TEMPERATURES IN CELSIUS
  WCI - WIND CHILL INDEX
   HX - HEAT INDEX
  VSB - VISIBILITY
$$




USA.gov is the U.S. government's official web portal to all federal, state and local government web resources and services.